4XHLK LLHA-LLRS

Flight info

Callsign 4XHLK
Flight time 0h 35m
Altitude 1000
Route CVFR
Aircraft TL20/L-S/C

Departure

Time 2026-05-01 12:26
Airport Uri Michaeli Haifa International Airport (LLHA)

Arrival

Time 2026-05-01 13:01
Airport Rishon Lezion Airfield (LLRS)
Time Latitude Longitude Altitude Speed Heading
2026-05-01 12:12 32.81287 35.04178 21 ft 0 kts 264°
2026-05-01 12:15 32.81235 35.04177 20 ft 11 kts 158°
2026-05-01 12:15 32.81170 35.04203 20 ft 10 kts 160°
2026-05-01 12:16 32.81155 35.04233 21 ft 0 kts 68°
2026-05-01 12:23 32.81168 35.04294 22 ft 22 kts 108°
2026-05-01 12:24 32.81025 35.04365 21 ft 24 kts 161°
2026-05-01 12:24 32.80874 35.04430 22 ft 22 kts 159°
2026-05-01 12:24 32.80740 35.04488 20 ft 17 kts 161°
2026-05-01 12:24 32.80644 35.04525 20 ft 12 kts 159°
2026-05-01 12:25 32.80612 35.04543 20 ft 0 kts 336°
2026-05-01 12:25 32.80622 35.04538 20 ft 17 kts 341°
2026-05-01 12:26 32.81020 35.04368 56 ft 90 kts 339°
2026-05-01 12:26 32.82158 35.03584 528 ft 89 kts 300°
2026-05-01 12:26 32.82462 35.02974 912 ft 80 kts 301°
2026-05-01 12:27 32.82784 35.02389 1124 ft 95 kts 297°
2026-05-01 12:27 32.83160 35.00798 1097 ft 99 kts 281°
2026-05-01 12:28 32.83503 34.99188 1029 ft 101 kts 288°
2026-05-01 12:28 32.83736 34.98419 1097 ft 95 kts 276°
2026-05-01 12:28 32.83460 34.96940 1333 ft 94 kts 252°
2026-05-01 12:29 32.83187 34.96208 1192 ft 96 kts 240°
2026-05-01 12:29 32.82805 34.95569 993 ft 93 kts 226°
2026-05-01 12:29 32.81518 34.95080 617 ft 99 kts 193°
2026-05-01 12:30 32.80252 34.94840 478 ft 81 kts 189°
2026-05-01 12:30 32.79708 34.94744 461 ft 80 kts 191°
2026-05-01 12:30 32.79153 34.94644 402 ft 81 kts 189°
2026-05-01 12:31 32.78602 34.94579 422 ft 84 kts 187°
2026-05-01 12:31 32.78187 34.94534 495 ft 92 kts 187°
2026-05-01 12:31 32.77828 34.94494 566 ft 94 kts 187°
2026-05-01 12:31 32.77180 34.94387 653 ft 95 kts 192°
2026-05-01 12:32 32.76519 34.94233 685 ft 99 kts 194°
2026-05-01 12:32 32.75105 34.93901 888 ft 106 kts 194°
2026-05-01 12:32 32.74382 34.93718 1012 ft 106 kts 194°
2026-05-01 12:33 32.73633 34.93540 794 ft 111 kts 192°
2026-05-01 12:33 32.72893 34.93375 656 ft 109 kts 193°
2026-05-01 12:33 32.72166 34.93240 558 ft 104 kts 188°
2026-05-01 12:33 32.71459 34.93135 481 ft 103 kts 189°
2026-05-01 12:34 32.70788 34.93038 452 ft 93 kts 188°
2026-05-01 12:34 32.70157 34.92951 412 ft 91 kts 187°
2026-05-01 12:34 32.69523 34.92876 376 ft 91 kts 186°
2026-05-01 12:34 32.68891 34.92808 356 ft 92 kts 186°
2026-05-01 12:35 32.68258 34.92730 321 ft 89 kts 188°
2026-05-01 12:35 32.67655 34.92642 372 ft 86 kts 188°
2026-05-01 12:35 32.67050 34.92552 344 ft 89 kts 189°
2026-05-01 12:35 32.66450 34.92465 384 ft 85 kts 190°
2026-05-01 12:36 32.65847 34.92343 301 ft 93 kts 192°
2026-05-01 12:36 32.65200 34.92205 254 ft 95 kts 189°
2026-05-01 12:36 32.64543 34.92065 204 ft 97 kts 191°
2026-05-01 12:36 32.63893 34.91931 254 ft 90 kts 189°
2026-05-01 12:37 32.63307 34.91822 394 ft 85 kts 191°
2026-05-01 12:37 32.62712 34.91720 428 ft 86 kts 191°
2026-05-01 12:37 32.62106 34.91598 381 ft 88 kts 191°
2026-05-01 12:37 32.61501 34.91471 359 ft 90 kts 192°
2026-05-01 12:38 32.60882 34.91337 301 ft 91 kts 191°
2026-05-01 12:38 32.60228 34.91199 331 ft 97 kts 192°
2026-05-01 12:38 32.59565 34.91057 451 ft 95 kts 191°
2026-05-01 12:38 32.58908 34.90916 523 ft 96 kts 193°
2026-05-01 12:39 32.58257 34.90771 604 ft 97 kts 192°
2026-05-01 12:39 32.57575 34.90642 573 ft 98 kts 189°
2026-05-01 12:39 32.56893 34.90514 516 ft 98 kts 191°
2026-05-01 12:39 32.56219 34.90372 451 ft 101 kts 192°
2026-05-01 12:40 32.55757 34.90275 394 ft 102 kts 192°
2026-05-01 12:40 32.55071 34.90132 444 ft 100 kts 192°
2026-05-01 12:40 32.54402 34.89985 571 ft 96 kts 192°
2026-05-01 12:40 32.53533 34.89804 720 ft 97 kts 192°
2026-05-01 12:41 32.53074 34.89709 723 ft 99 kts 192°
2026-05-01 12:41 32.52390 34.89569 664 ft 103 kts 192°
2026-05-01 12:41 32.51668 34.89419 512 ft 105 kts 193°
2026-05-01 12:41 32.51003 34.89213 459 ft 95 kts 211°
2026-05-01 12:42 32.50384 34.88954 440 ft 99 kts 190°
2026-05-01 12:42 32.49653 34.88848 301 ft 110 kts 188°
2026-05-01 12:42 32.48965 34.88649 412 ft 95 kts 200°
2026-05-01 12:42 32.48354 34.88370 490 ft 94 kts 204°
2026-05-01 12:43 32.47727 34.88068 488 ft 101 kts 205°
2026-05-01 12:43 32.47052 34.87737 365 ft 109 kts 200°
2026-05-01 12:43 32.46356 34.87569 449 ft 98 kts 185°
2026-05-01 12:43 32.45725 34.87490 511 ft 88 kts 188°
2026-05-01 12:44 32.45126 34.87421 595 ft 84 kts 187°
2026-05-01 12:44 32.44525 34.87371 580 ft 93 kts 185°
2026-05-01 12:44 32.43219 34.87007 419 ft 96 kts 198°
2026-05-01 12:45 32.42039 34.86658 490 ft 94 kts 195°
2026-05-01 12:45 32.41383 34.86461 520 ft 103 kts 196°
2026-05-01 12:45 32.40644 34.86252 548 ft 116 kts 195°
2026-05-01 12:46 32.39809 34.86048 426 ft 126 kts 193°
2026-05-01 12:46 32.38997 34.85818 530 ft 115 kts 197°
2026-05-01 12:46 32.38225 34.85570 641 ft 115 kts 197°
2026-05-01 12:46 32.37406 34.85320 532 ft 124 kts 196°
2026-05-01 12:47 32.36576 34.85076 494 ft 124 kts 193°
2026-05-01 12:47 32.35739 34.84871 534 ft 117 kts 195°
2026-05-01 12:47 32.34922 34.84670 400 ft 121 kts 193°
2026-05-01 12:47 32.34176 34.84441 525 ft 110 kts 197°
2026-05-01 12:48 32.33391 34.84245 466 ft 114 kts 193°
2026-05-01 12:48 32.32633 34.84045 531 ft 109 kts 195°
2026-05-01 12:48 32.31917 34.83844 675 ft 104 kts 195°
2026-05-01 12:48 32.31162 34.83631 594 ft 121 kts 195°
2026-05-01 12:49 32.30339 34.83407 556 ft 124 kts 193°
2026-05-01 12:49 32.29564 34.83207 650 ft 115 kts 196°
2026-05-01 12:49 32.28782 34.82962 714 ft 117 kts 198°
2026-05-01 12:49 32.27988 34.82716 791 ft 115 kts 195°
2026-05-01 12:50 32.27184 34.82542 830 ft 116 kts 192°
2026-05-01 12:50 32.26440 34.82348 1045 ft 109 kts 195°
2026-05-01 12:50 32.25651 34.82173 895 ft 121 kts 192°
2026-05-01 12:50 32.24860 34.81995 987 ft 112 kts 192°
2026-05-01 12:51 32.24115 34.81826 769 ft 119 kts 193°
2026-05-01 12:51 32.23306 34.81559 323 ft 115 kts 196°
2026-05-01 12:51 32.21795 34.81178 388 ft 111 kts 189°
2026-05-01 12:52 32.21039 34.80988 438 ft 115 kts 196°
2026-05-01 12:52 32.19492 34.80483 529 ft 121 kts 202°
2026-05-01 12:52 32.18721 34.80116 359 ft 113 kts 204°
2026-05-01 12:53 32.17345 34.79523 404 ft 114 kts 199°
2026-05-01 12:53 32.16594 34.79408 262 ft 118 kts 201°
2026-05-01 12:53 32.15859 34.79105 435 ft 107 kts 196°
2026-05-01 12:54 32.15144 34.78877 414 ft 117 kts 192°
2026-05-01 12:54 32.13554 34.78454 529 ft 120 kts 196°
2026-05-01 12:54 32.12736 34.78175 402 ft 127 kts 198°
2026-05-01 12:55 32.11113 34.77550 512 ft 110 kts 199°
2026-05-01 12:55 32.10343 34.77255 486 ft 119 kts 200°
2026-05-01 12:55 32.09570 34.76934 532 ft 119 kts 202°
2026-05-01 12:56 32.08771 34.76608 421 ft 128 kts 199°
2026-05-01 12:56 32.07970 34.76289 569 ft 115 kts 199°
2026-05-01 12:56 32.07191 34.75955 539 ft 121 kts 204°
2026-05-01 12:56 32.06444 34.75523 557 ft 119 kts 212°
2026-05-01 12:57 32.05722 34.75000 562 ft 117 kts 211°
2026-05-01 12:57 32.04254 34.74104 610 ft 115 kts 208°
2026-05-01 12:57 32.03507 34.73748 723 ft 110 kts 204°
2026-05-01 12:58 32.02767 34.73416 763 ft 117 kts 202°
2026-05-01 12:58 32.01938 34.73123 603 ft 126 kts 194°
2026-05-01 12:58 32.01127 34.72926 515 ft 112 kts 192°
2026-05-01 12:59 31.99671 34.72584 371 ft 107 kts 193°
2026-05-01 12:59 31.98948 34.72400 319 ft 105 kts 193°
2026-05-01 12:59 31.97579 34.72733 434 ft 81 kts 109°
2026-05-01 13:00 31.97060 34.73845 457 ft 88 kts 158°
2026-05-01 13:00 31.96467 34.74123 508 ft 92 kts 161°
2026-05-01 13:01 31.95582 34.74705 408 ft 77 kts 89°
2026-05-01 13:01 31.95821 34.75230 276 ft 70 kts 31°
2026-05-01 13:01 31.96555 34.75357 66 ft 26 kts 360°
2026-05-01 13:02 31.96737 34.75350 66 ft 14 kts 324°